Regional Weather Roundup
Issued by NWS

Home | Current Version | Previous Version | Graphics & Text | Print | Product List | Glossary On
Versions: 1 2 3 4 5 6 7 8 9 10 11 12 13 14 15 16 17 18 19 20 21 22 23 24 25 26 27 28 29 30 31 32 33 34 35 36 37 38 39 40 41 42 43 44 45 46 47 48 49 50
000
ASUS45 KABQ 200710
RWRNM
NEW MEXICO REGIONAL WEATHER ROUNDUP
NATIONAL WEATHER SERVICE ALBUQUERQUE NM
100 AM MDT THU JUL 20 2017

NOTE: "FAIR" MEANS FEW OR NO CLOUDS BELOW 12,000 FEET AGL WITH NO
       SIGNIFICANT WEATHER OR OBSTRUCTIONS TO VISION.

      THIS PRODUCT IS RELEASED AS TWO VERSIONS.  ONE VERSION NEAR
      THE TOP OF THE HOUR CONTAINING PRELIMINARY DATA FROM ALBUQUERQUE
      AND OTHER STATIONS.  A FINAL VERSION WITH ADDITIONAL DATA IS
      ISSUED ABOUT 10 MINUTES AFTER THE HOUR.

NMZ501-503-504-510>518-200800-
NORTHWEST PLATEAU/NORTHCENTRAL MOUNTAINS

CITY           SKY/WX    TMP DP  RH WIND       PRES   REMARKS
FARMINGTON     FAIR      73  54  51 W9        30.19R
LOS ALAMOS     FAIR      69  47  45 SW8       30.39S
SANTA FE       FAIR      66  54  65 SE7       30.35R
TAOS           FAIR      63  41  45 NE3         N/A
ANGEL FIRE     FAIR      52  46  78 CALM      30.49R

$$
NMZ402-403-502-505>509-200800-
WESTCENTRAL MOUNTAINS/SOUTHWEST MOUNTAINS

CITY           SKY/WX    TMP DP  RH WIND       PRES   REMARKS
GALLUP         FAIR      67  54  63 S8        30.30R
GRANTS         FAIR      67  49  52 SE10      30.34S
SILVER CITY    FAIR      62  53  72 CALM      30.28F

$$
NMZ407-409-411-412-200800-
SOUTHERN DESERTS

CITY           SKY/WX    TMP DP  RH WIND       PRES   REMARKS
DEMING         FAIR      67  62  84 NE8       30.21S
LAS CRUCES     FAIR      67  60  75 E5        30.23S
HOLLOMAN AFB   FAIR      67  61  82 N7        30.22S
ALAMOGORDO     FAIR      68  59  73 NW8       30.22S
T OR C         FAIR      68  63  84 NW6       30.24S

$$
NMZ519>523-200800-
CENTRAL VALLEYS/CENTRAL HIGHLANDS

CITY           SKY/WX    TMP DP  RH WIND       PRES   REMARKS
ALBUQUERQUE    FAIR      71  54  54 SE3       30.28R
DOUBLE EAGLE   FAIR      64  51  62 SE5       30.31S
MORIARTY ARPT  FAIR      65  57  73 SE6       30.35R
CLINES CORNERS FAIR      62  50  64 SW10      30.39F
BELEN          FAIR      71  49  46 S13       30.26R
SOCORRO        FAIR      67  59  77 S7        30.26S

$$
NMZ524>526-539-540-200800-
SOUTHCENTRAL MOUNTAINS

CITY           SKY/WX    TMP DP  RH WIND       PRES   REMARKS
RUIDOSO        FAIR      63  45  51 SW6       30.40F

$$
NMZ527>531-200800-
NORTHEAST HIGHLANDS/NORTHEAST PLAINS

CITY           SKY/WX    TMP DP  RH WIND       PRES   REMARKS
LAS VEGAS      FAIR      62  48  60 S10       30.36F
RATON          FAIR      66  46  48 CALM      30.30S
CLAYTON        FAIR      71  56  58 S14       30.20F

$$
NMZ532>537-200800-
EASTCENTRAL PLAINS

CITY           SKY/WX    TMP DP  RH WIND       PRES   REMARKS
SANTA ROSA     FAIR      71  56  58 S6        30.23S
TUCUMCARI      FAIR      75  60  59 SW7       30.16S
CANNON AFB     FAIR      73  60  63 W5        30.24R
CLOVIS AIRPORT FAIR      70  57  63 SW5       30.23S

$$
NMZ028-029-538-200800-
SOUTHEAST PLAINS

CITY           SKY/WX    TMP DP  RH WIND       PRES   REMARKS
ROSWELL        FAIR      72  57  59 SE6       30.17S
ARTESIA        FAIR      73  57  56 SW5       30.18S
CARLSBAD       FAIR      74  60  61 S7        30.15F
HOBBS          FAIR      72  63  73 S7        30.21S


$$




USA.gov is the U.S. government's official web portal to all federal, state and local government web resources and services.